Simultaneous Nadir Overpasses (SNOs) Predictions

Prediction of SNOs over PacNW region [( 10.00, 139.50) to ( 22.70, 165.60)] between AQUA and NPP Satellites:

Table of predicted SNOs over PacNW region for the next 30.0 days since TLE Epoch: 2/15/2020
Index Date (AQUA) Time (AQUA) AQUA Lat,Lon Date (NPP) Time (NPP) NPP Lat,Lon Distance(km) Time Diff (sec)
1 02/18/2020 15:59:29 22.60, 147.48 02/18/2020 16:01:19 23.23, 144.60 302.90 110
2 02/26/2020 15:10:07 22.61, 159.83 02/26/2020 15:10:37 23.19, 157.26 270.74 30
3 03/05/2020 15:59:38 22.63, 147.47 03/05/2020 16:01:24 23.25, 144.58 303.86 106




NCC Satellite Simultaneous Nadir Overpasses (SNOs) Prediction Service
